Regional Weather Roundup
Issued by NWS Charleston, WV

Home | Current Version | Previous Version | Text Only | Print | Product List | Glossary Off
Versions: 1 2 3 4 5 6 7 8 9 10 11 12 13 14 15 16 17 18 19 20 21 22 23 24 25 26 27 28 29 30 31 32 33 34 35 36 37 38 39 40 41 42 43 44 45 46 47 48 49 50

000
ASUS41 KRLX 191010
RWRRLX
West Virginia Regional Weather Roundup
National Weather Service Charleston WV
500 AM EST FRI DEC 19 2014

Note: "fair" indicates few or no clouds below 12,000 feet with no
significant weather and/or obstructions to visibility.

WVZ003-191100-
Northern Panhandle of West Virginia

CITY           SKY/WX    TMP DP  RH WIND       PRES   REMARKS
WHEELING       CLOUDY    27  23  85 W7        30.16S
$$

WVZ009-191100-
Northwest West Virginia

CITY           SKY/WX    TMP DP  RH WIND       PRES   REMARKS
PARKERSBURG    CLOUDY    28  22  78 W3        30.23F
$$

WVZ006-191100-
Western West Virginia

CITY           SKY/WX    TMP DP  RH WIND       PRES   REMARKS
HUNTINGTON     CLOUDY    28  23  81 N3        30.22S
$$

WVZ015-191100-
West Central West Virginia

CITY           SKY/WX    TMP DP  RH WIND       PRES   REMARKS
CHARLESTON     MOCLDY    28  22  78 CALM      30.21R
$$

WVZ022-031-191100-
North Central West Virginia

CITY           SKY/WX    TMP DP  RH WIND       PRES   REMARKS
CLARKSBURG     CLOUDY    27  21  78 NW6       30.17F
MORGANTOWN     CLOUDY    27  19  72 VRB3      30.16F
$$

WVZ025-035-042-045-191100-
Southern West Virginia

CITY           SKY/WX    TMP DP  RH WIND       PRES   REMARKS
BECKLEY        CLOUDY    25  20  81 NW8       30.10F
LOGAN          CLOUDY    28  25  86 CALM      30.16S
BLUEFIELD      CLOUDY    29  22  75 W8        30.09S
LEWISBURG      PTCLDY    28  22  80 W5        30.10S
$$

WVZ047-191100-
Northern Mountains of West Virginia

CITY           SKY/WX    TMP DP  RH WIND       PRES   REMARKS
ELKINS         CLOUDY    25  21  85 N6        30.13S
$$

WVZ052-191100-
Eastern Panhandle of West Virginia

CITY           SKY/WX    TMP DP  RH WIND       PRES   REMARKS
MARTINSBURG    CLOUDY    34  19  54 W9        30.11S
PETERSBURG     MOCLDY    29  23  78 CALM      30.14R
$$


USA.gov is the U.S. government's official web portal to all federal, state and local government web resources and services.